EN

Hourly Weather Dziedzice

Today, 29 October, Thursday

Time Temperature Precipitation Wind Pressure Humidity
00:00 +7°C° 0 mm 4 mps 751 mmHg 93%
01:00 +8°C° 0 mm 3 mps 751 mmHg 94%
02:00 +7°C° 0 mm 4 mps 750 mmHg 91%
03:00 +8°C° 0 mm 4 mps 750 mmHg 87%
04:00 +8°C° 0 mm 5 mps 749 mmHg 84%
05:00 +8°C° 0.2 mm 5 mps 749 mmHg 84%
06:00 +8°C° 0.2 mm 5 mps 749 mmHg 85%
07:00 +9°C° 0 mm 5 mps 749 mmHg 85%
08:00 +9°C° 0.3 mm 5 mps 749 mmHg 83%
09:00 +10°C° 0.3 mm 5 mps 749 mmHg 81%
10:00 +10°C° 0.3 mm 6 mps 749 mmHg 79%
11:00 +10°C° 0 mm 6 mps 750 mmHg 74%
12:00 +10°C° 0 mm 7 mps 750 mmHg 69%
13:00 +11°C° 0 mm 7 mps 751 mmHg 64%
14:00 +10°C° 0.1 mm 6 mps 751 mmHg 67%
15:00 +9°C° 0.1 mm 6 mps 752 mmHg 69%
16:00 +9°C° 0.1 mm 5 mps 752 mmHg 72%
17:00 +8°C° 0 mm 5 mps 753 mmHg 75%
18:00 +8°C° 0 mm 5 mps 753 mmHg 78%
19:00 +7°C° 0 mm 5 mps 753 mmHg 81%
20:00 +7°C° 0 mm 5 mps 754 mmHg 83%
21:00 +7°C° 0 mm 5 mps 754 mmHg 85%
22:00 +6°C° 0 mm 5 mps 754 mmHg 87%
23:00 +6°C° 0 mm 4 mps 754 mmHg 88%

Tomorrow, 30 October, Friday

Time Temperature Precipitation Wind Pressure Humidity
00:00 +6°C° 0 mm 4 mps 755 mmHg 89%
01:00 +5°C° 0 mm 4 mps 755 mmHg 91%
02:00 +5°C° 0 mm 3 mps 755 mmHg 90%
03:00 +5°C° 0 mm 3 mps 754 mmHg 90%
04:00 +7°C° 0 mm 3 mps 754 mmHg 90%
05:00 +7°C° 0.4 mm 3 mps 754 mmHg 91%
06:00 +7°C° 0.4 mm 3 mps 754 mmHg 93%
07:00 +7°C° 0.4 mm 3 mps 754 mmHg 94%
08:00 +8°C° 1.3 mm 3 mps 753 mmHg 95%
09:00 +8°C° 1.3 mm 3 mps 753 mmHg 96%
10:00 +9°C° 1.3 mm 3 mps 753 mmHg 97%
11:00 +9°C° 1.4 mm 3 mps 753 mmHg 96%
12:00 +10°C° 1.4 mm 4 mps 753 mmHg 96%
13:00 +11°C° 1.4 mm 4 mps 753 mmHg 95%
14:00 +11°C° 0.4 mm 4 mps 753 mmHg 95%
15:00 +12°C° 0.4 mm 5 mps 753 mmHg 94%
16:00 +12°C° 0.4 mm 5 mps 753 mmHg 94%
17:00 +12°C° 0.6 mm 5 mps 754 mmHg 94%
18:00 +12°C° 0.6 mm 5 mps 754 mmHg 95%
19:00 +12°C° 0.6 mm 5 mps 754 mmHg 95%
20:00 +12°C° 0.3 mm 5 mps 755 mmHg 95%
21:00 +12°C° 0.3 mm 4 mps 755 mmHg 95%
22:00 +13°C° 0.3 mm 4 mps 756 mmHg 96%
23:00 +12°C° 0.1 mm 4 mps 756 mmHg 96%

Day after tomorrow, 31 October, Saturday

Time Temperature Precipitation Wind Pressure Humidity
00:00 +12°C° 0.1 mm 3 mps 757 mmHg 96%
01:00 +12°C° 0.1 mm 3 mps 757 mmHg 96%
02:00 +12°C° 0 mm 3 mps 757 mmHg 96%
03:00 +13°C° 0 mm 2 mps 758 mmHg 96%
04:00 +13°C° 0 mm 2 mps 758 mmHg 97%
05:00 +13°C° 0 mm 2 mps 759 mmHg 97%
06:00 +13°C° 0 mm 1 mps 759 mmHg 96%
07:00 +12°C° 0 mm 1 mps 759 mmHg 96%
08:00 +13°C° 0 mm 1 mps 759 mmHg 95%
09:00 +13°C° 0 mm 1 mps 760 mmHg 93%
10:00 +13°C° 0 mm 1 mps 760 mmHg 91%
11:00 +14°C° 0 mm 1 mps 760 mmHg 90%
12:00 +14°C° 0 mm 2 mps 760 mmHg 89%
13:00 +14°C° 0 mm 2 mps 760 mmHg 88%
14:00 +14°C° 0 mm 2 mps 760 mmHg 89%
15:00 +14°C° 0 mm 2 mps 759 mmHg 90%
16:00 +14°C° 0 mm 2 mps 759 mmHg 91%
17:00 +12°C° 0 mm 3 mps 759 mmHg 91%
18:00 +12°C° 0 mm 3 mps 759 mmHg 92%
19:00 +12°C° 0 mm 3 mps 759 mmHg 92%
20:00 +11°C° 0 mm 4 mps 759 mmHg 93%
21:00 +11°C° 0 mm 4 mps 759 mmHg 93%
22:00 +10°C° 0 mm 4 mps 759 mmHg 94%
23:00 +10°C° 0 mm 4 mps 758 mmHg 94%

1 November, Sunday

Time Temperature Precipitation Wind Pressure Humidity
00:00 +10°C° 0 mm 4 mps 758 mmHg 94%
01:00 +10°C° 0 mm 4 mps 758 mmHg 94%
02:00 +10°C° 0 mm 4 mps 758 mmHg 93%
03:00 +8°C° 0 mm 5 mps 757 mmHg 93%
04:00 +8°C° 0 mm 5 mps 757 mmHg 92%
05:00 +8°C° 0 mm 5 mps 757 mmHg 92%
06:00 +8°C° 0 mm 5 mps 756 mmHg 92%
07:00 +7°C° 0 mm 5 mps 756 mmHg 91%
08:00 +8°C° 0 mm 5 mps 756 mmHg 89%
09:00 +9°C° 0 mm 6 mps 755 mmHg 86%
10:00 +10°C° 0 mm 6 mps 755 mmHg 84%
11:00 +11°C° 0 mm 6 mps 755 mmHg 81%
12:00 +13°C° 0 mm 6 mps 754 mmHg 77%
13:00 +14°C° 0 mm 6 mps 754 mmHg 74%
14:00 +14°C° 0 mm 6 mps 754 mmHg 76%
15:00 +14°C° 0 mm 5 mps 753 mmHg 77%
16:00 +14°C° 0 mm 5 mps 753 mmHg 78%
17:00 +13°C° 0 mm 5 mps 753 mmHg 80%
18:00 +13°C° 0 mm 5 mps 753 mmHg 81%
19:00 +13°C° 0 mm 5 mps 753 mmHg 82%
20:00 +13°C° 0 mm 5 mps 753 mmHg 83%
21:00 +13°C° 0 mm 5 mps 753 mmHg 85%
22:00 +13°C° 0 mm 5 mps 753 mmHg 86%
23:00 +13°C° 0 mm 5 mps 752 mmHg 85%

2 November, Monday

Time Temperature Precipitation Wind Pressure Humidity
00:00 +13°C° 0 mm 5 mps 752 mmHg 84%
01:00 +13°C° 0 mm 5 mps 752 mmHg 83%
02:00 +12°C° 0 mm 5 mps 752 mmHg 84%
03:00 +12°C° 0 mm 5 mps 751 mmHg 84%
04:00 +12°C° 0 mm 5 mps 751 mmHg 84%
05:00 +12°C° 0 mm 5 mps 751 mmHg 84%
06:00 +13°C° 0 mm 5 mps 751 mmHg 83%
07:00 +13°C° 0 mm 5 mps 751 mmHg 83%
08:00 +13°C° 0.2 mm 5 mps 751 mmHg 85%
09:00 +13°C° 0.2 mm 5 mps 751 mmHg 88%
10:00 +14°C° 0.2 mm 5 mps 751 mmHg 90%
11:00 +15°C° 0 mm 5 mps 751 mmHg 86%
12:00 +16°C° 0 mm 5 mps 751 mmHg 81%
13:00 +17°C° 0 mm 6 mps 751 mmHg 77%
14:00 +17°C° 0 mm 5 mps 751 mmHg 79%
15:00 +17°C° 0 mm 5 mps 751 mmHg 81%
16:00 +17°C° 0 mm 4 mps 751 mmHg 82%
17:00 +17°C° 0 mm 4 mps 751 mmHg 82%
18:00 +17°C° 0 mm 4 mps 751 mmHg 82%
19:00 +17°C° 0 mm 4 mps 751 mmHg 81%
20:00 +16°C° 0 mm 5 mps 751 mmHg 82%
21:00 +16°C° 0 mm 5 mps 751 mmHg 82%
22:00 +16°C° 0 mm 5 mps 751 mmHg 82%
23:00 +15°C° 0 mm 5 mps 751 mmHg 85%

3 November, Tuesday

Time Temperature Precipitation Wind Pressure Humidity
00:00 +15°C° 0 mm 5 mps 752 mmHg 87%
01:00 +14°C° 0 mm 4 mps 752 mmHg 90%
02:00 +14°C° 0 mm 4 mps 752 mmHg 90%
03:00 +14°C° 0 mm 3 mps 753 mmHg 91%
04:00 +14°C° 0 mm 3 mps 753 mmHg 92%
05:00 +13°C° 0 mm 3 mps 754 mmHg 91%
06:00 +13°C° 0 mm 2 mps 754 mmHg 90%
07:00 +13°C° 0 mm 2 mps 755 mmHg 89%
08:00 +13°C° 0 mm 2 mps 755 mmHg 86%
09:00 +13°C° 0 mm 2 mps 755 mmHg 82%
10:00 +14°C° 0 mm 2 mps 756 mmHg 79%
11:00 +14°C° 0 mm 2 mps 756 mmHg 76%
12:00 +15°C° 0 mm 1 mps 756 mmHg 74%
13:00 +15°C° 0 mm 1 mps 756 mmHg 71%
14:00 +15°C° 0 mm 1 mps 756 mmHg 74%
15:00 +15°C° 0 mm 1 mps 756 mmHg 77%
16:00 +14°C° 0 mm 0 mps 756 mmHg 80%
17:00 +14°C° 0 mm 1 mps 757 mmHg 82%
18:00 +14°C° 0 mm 2 mps 757 mmHg 83%
19:00 +14°C° 0 mm 2 mps 757 mmHg 85%
20:00 +12°C° 0 mm 3 mps 758 mmHg 87%
21:00 +12°C° 0 mm 3 mps 758 mmHg 88%
22:00 +11°C° 0 mm 3 mps 759 mmHg 90%
23:00 +10°C° 0 mm 3 mps 759 mmHg 90%
Show more